Time,TemperatureF,DewpointF,PressureIn,WindDirection,WindDirectionDegrees,WindSpeedMPH,WindSpeedGustMPH,Humidity,HourlyPrecipIn,Conditions,Clouds,dailyrainin,SoftwareType,DateUTC
2013-03-23 11:42:00,37.4,20.5,29.62,NW,315,3.0,0.0,50,0.00,,,0.02,WeatherTracker,2013-03-23 15:42:00,
2013-03-23 11:43:00,37.5,20.6,29.62,NW,315,0.0,0.0,50,0.00,,,0.02,WeatherTracker,2013-03-23 15:43:00,
2013-03-23 11:48:00,37.9,20.5,29.61,SW,232,4.0,0.0,49,0.00,,,0.02,WeatherTracker,2013-03-23 15:48:00,
2013-03-23 11:53:00,38.2,19.8,29.61,West,269,3.0,0.0,47,0.00,,,0.02,WeatherTracker,2013-03-23 15:53:00,
2013-03-23 11:58:00,38.5,19.5,29.61,WNW,291,4.0,0.0,46,0.00,,,0.02,WeatherTracker,2013-03-23 15:58:00,
2013-03-23 12:03:00,38.7,19.7,29.61,WNW,288,0.0,0.0,46,0.00,,,0.02,WeatherTracker,2013-03-23 16:03:00,
2013-03-23 12:08:00,38.9,19.9,29.61,West,275,3.0,0.0,46,0.00,,,0.02,WeatherTracker,2013-03-23 16:08:00,
2013-03-23 12:13:00,38.4,19.9,29.61,WSW,238,5.0,0.0,47,0.00,,,0.02,WeatherTracker,2013-03-23 16:13:00,
2013-03-23 12:18:00,38.2,19.3,29.61,WSW,240,4.0,0.0,46,0.00,,,0.02,WeatherTracker,2013-03-23 16:18:00,
2013-03-23 12:23:00,38.6,19.6,29.60,SSE,153,4.0,0.0,46,0.00,,,0.02,WeatherTracker,2013-03-23 16:23:00,
2013-03-23 12:28:00,39.0,20.0,29.60,West,277,2.0,0.0,46,0.00,,,0.02,WeatherTracker,2013-03-23 16:28:00,
2013-03-23 12:33:00,38.7,19.7,29.61,WNW,291,8.0,0.0,46,0.00,,,0.02,WeatherTracker,2013-03-23 16:33:00,
2013-03-23 12:38:00,38.4,18.9,29.61,NW,308,1.0,0.0,45,0.00,,,0.02,WeatherTracker,2013-03-23 16:38:00,
2013-03-23 12:43:00,38.7,19.7,29.60,WSW,241,5.0,0.0,46,0.00,,,0.02,WeatherTracker,2013-03-23 16:43:00,
2013-03-23 12:48:00,39.5,19.9,29.60,SSE,161,7.0,0.0,45,0.00,,,0.02,WeatherTracker,2013-03-23 16:48:00,
2013-03-23 12:53:00,40.0,20.4,29.60,West,281,7.0,0.0,45,0.00,,,0.02,WeatherTracker,2013-03-23 16:53:00,
2013-03-23 12:58:00,39.6,20.5,29.61,WSW,244,5.0,0.0,46,0.00,,,0.02,WeatherTracker,2013-03-23 16:58:00,
2013-03-23 13:04:00,39.8,21.2,29.61,West,279,4.0,0.0,47,0.00,,,0.02,WeatherTracker,2013-03-23 17:04:00,
2013-03-23 13:09:00,40.2,19.5,29.61,WNW,284,4.0,0.0,43,0.00,,,0.02,WeatherTracker,2013-03-23 17:09:00,
2013-03-23 13:14:00,40.2,20.6,29.61,NNW,335,4.0,0.0,45,0.00,,,0.02,WeatherTracker,2013-03-23 17:14:00,
2013-03-23 13:19:00,39.8,19.7,29.60,North,11,3.0,0.0,44,0.00,,,0.02,WeatherTracker,2013-03-23 17:19:00,
2013-03-23 13:24:00,39.9,20.3,29.60,West,275,9.0,0.0,45,0.00,,,0.02,WeatherTracker,2013-03-23 17:24:00,
2013-03-23 13:29:00,40.0,19.9,29.60,West,275,7.0,0.0,44,0.00,,,0.02,WeatherTracker,2013-03-23 17:29:00,
2013-03-23 13:34:00,39.6,19.5,29.60,WNW,296,4.0,0.0,44,0.00,,,0.02,WeatherTracker,2013-03-23 17:34:00,
2013-03-23 13:39:00,39.8,19.1,29.59,West,263,0.0,0.0,43,0.00,,,0.02,WeatherTracker,2013-03-23 17:39:00,
2013-03-23 13:44:00,40.5,21.4,29.60,WNW,299,4.0,0.0,46,0.00,,,0.02,WeatherTracker,2013-03-23 17:44:00,
2013-03-23 13:49:00,40.6,19.3,29.60,West,281,1.0,0.0,42,0.00,,,0.02,WeatherTracker,2013-03-23 17:49:00,
2013-03-23 13:54:00,40.3,19.1,29.59,WSW,247,2.0,0.0,42,0.00,,,0.02,WeatherTracker,2013-03-23 17:54:00,
2013-03-23 13:59:00,40.5,19.2,29.59,WNW,287,4.0,0.0,42,0.00,,,0.02,WeatherTracker,2013-03-23 17:59:00,
2013-03-23 14:04:00,40.7,18.9,29.59,West,280,1.0,0.0,41,0.00,,,0.02,WeatherTracker,2013-03-23 18:04:00,
2013-03-23 14:09:00,40.6,18.8,29.59,WSW,251,3.0,0.0,41,0.00,,,0.02,WeatherTracker,2013-03-23 18:09:00,
2013-03-23 14:14:00,41.3,18.2,29.59,WNW,291,3.0,0.0,39,0.00,,,0.02,WeatherTracker,2013-03-23 18:14:00,
2013-03-23 14:19:00,41.8,19.3,29.59,West,279,4.0,0.0,40,0.00,,,0.02,WeatherTracker,2013-03-23 18:19:00,
2013-03-23 14:24:00,42.1,18.3,29.59,SSW,209,1.0,0.0,38,0.00,,,0.02,WeatherTracker,2013-03-23 18:24:00,
2013-03-23 14:29:00,41.3,17.6,29.59,WSW,256,4.0,0.0,38,0.00,,,0.02,WeatherTracker,2013-03-23 18:29:00,
2013-03-23 14:34:00,41.4,18.9,29.58,WNW,284,6.0,0.0,40,0.00,,,0.02,WeatherTracker,2013-03-23 18:34:00,
2013-03-23 14:39:00,42.0,18.9,29.58,NNE,26,2.0,0.0,39,0.00,,,0.02,WeatherTracker,2013-03-23 18:39:00,
2013-03-23 14:45:00,42.1,18.3,29.58,West,277,4.0,0.0,38,0.00,,,0.02,WeatherTracker,2013-03-23 18:45:00,
2013-03-23 14:50:00,41.9,18.8,29.58,SW,236,5.0,0.0,39,0.00,,,0.02,WeatherTracker,2013-03-23 18:50:00,
2013-03-23 14:55:00,42.4,18.6,29.58,West,261,10.0,0.0,38,0.00,,,0.02,WeatherTracker,2013-03-23 18:55:00,
2013-03-23 15:00:00,42.4,19.8,29.58,West,278,7.0,0.0,40,0.00,,,0.02,WeatherTracker,2013-03-23 19:00:00,
2013-03-23 15:05:00,42.0,18.9,29.58,West,277,5.0,0.0,39,0.00,,,0.02,WeatherTracker,2013-03-23 19:05:00,
2013-03-23 15:10:00,41.7,19.8,29.57,NW,314,5.0,0.0,41,0.00,,,0.02,WeatherTracker,2013-03-23 19:10:00,
2013-03-23 15:15:00,42.4,19.2,29.57,WNW,288,1.0,0.0,39,0.00,,,0.02,WeatherTracker,2013-03-23 19:15:00,
2013-03-23 15:20:00,43.3,19.4,29.57,WNW,294,6.0,0.0,38,0.00,,,0.02,WeatherTracker,2013-03-23 19:20:00,
2013-03-23 15:25:00,43.3,20.0,29.57,WNW,296,2.0,0.0,39,0.00,,,0.02,WeatherTracker,2013-03-23 19:25:00,
2013-03-23 15:30:00,43.0,18.5,29.57,WNW,296,5.0,0.0,37,0.00,,,0.02,WeatherTracker,2013-03-23 19:30:00,
2013-03-23 15:35:00,42.5,18.7,29.57,SSW,207,2.0,0.0,38,0.00,,,0.02,WeatherTracker,2013-03-23 19:35:00,
2013-03-23 15:40:00,42.4,18.6,29.57,WSW,240,7.0,0.0,38,0.00,,,0.02,WeatherTracker,2013-03-23 19:40:00,
2013-03-23 15:45:00,42.4,19.8,29.57,WNW,292,4.0,0.0,40,0.00,,,0.02,WeatherTracker,2013-03-23 19:45:00,
2013-03-23 15:50:00,42.0,18.9,29.58,WNW,286,3.0,0.0,39,0.00,,,0.02,WeatherTracker,2013-03-23 19:50:00,
2013-03-23 15:55:00,41.7,19.2,29.58,WNW,292,13.0,0.0,40,0.00,,,0.02,WeatherTracker,2013-03-23 19:55:00,
2013-03-23 16:00:00,42.2,20.2,29.57,WNW,293,5.0,0.0,41,0.00,,,0.02,WeatherTracker,2013-03-23 20:00:00,
2013-03-23 16:05:00,42.2,19.6,29.57,South,182,3.0,0.0,40,0.00,,,0.02,WeatherTracker,2013-03-23 20:05:00,
2013-03-23 16:10:00,42.2,19.0,29.57,WSW,248,4.0,0.0,39,0.00,,,0.02,WeatherTracker,2013-03-23 20:10:00,
2013-03-23 16:15:00,42.9,20.3,29.57,WSW,247,4.0,0.0,40,0.00,,,0.02,WeatherTracker,2013-03-23 20:15:00,
2013-03-23 16:20:00,42.5,19.9,29.58,West,269,9.0,0.0,40,0.00,,,0.02,WeatherTracker,2013-03-23 20:20:00,
2013-03-23 16:25:00,42.5,19.9,29.58,WNW,302,11.0,0.0,40,0.01,,,0.03,WeatherTracker,2013-03-23 20:25:00,
2013-03-23 16:30:00,41.9,19.4,29.58,West,267,1.0,0.0,40,0.01,,,0.03,WeatherTracker,2013-03-23 20:30:00,
2013-03-23 16:35:00,41.6,20.2,29.58,West,263,1.0,0.0,42,0.01,,,0.03,WeatherTracker,2013-03-23 20:35:00,
2013-03-23 16:40:00,41.9,21.1,29.58,SSW,198,1.0,0.0,43,0.01,,,0.03,WeatherTracker,2013-03-23 20:40:00,
2013-03-23 16:45:00,41.7,20.3,29.58,West,279,3.0,0.0,42,0.01,,,0.03,WeatherTracker,2013-03-23 20:45:00,
2013-03-23 16:50:00,41.8,20.4,29.58,WNW,284,5.0,0.0,42,0.01,,,0.03,WeatherTracker,2013-03-23 20:50:00,
2013-03-23 16:56:00,41.6,20.8,29.58,WSW,258,8.0,0.0,43,0.01,,,0.03,WeatherTracker,2013-03-23 20:56:00,
2013-03-23 17:01:00,41.8,20.4,29.58,WSW,257,1.0,0.0,42,0.01,,,0.03,WeatherTracker,2013-03-23 21:01:00,
2013-03-23 17:06:00,42.3,20.3,29.58,SW,232,0.0,0.0,41,0.01,,,0.03,WeatherTracker,2013-03-23 21:06:00,
2013-03-23 17:11:00,42.7,21.2,29.58,WNW,292,3.0,0.0,42,0.01,,,0.03,WeatherTracker,2013-03-23 21:11:00,
2013-03-23 17:16:00,43.1,21.0,29.58,West,263,2.0,0.0,41,0.01,,,0.03,WeatherTracker,2013-03-23 21:16:00,
2013-03-23 17:21:00,42.5,19.9,29.59,NW,310,1.0,0.0,40,0.00,,,0.03,WeatherTracker,2013-03-23 21:21:00,
2013-03-23 17:26:00,42.3,20.9,29.59,ENE,74,2.0,0.0,42,0.00,,,0.03,WeatherTracker,2013-03-23 21:26:00,
2013-03-23 17:31:00,42.3,20.3,29.59,West,279,3.0,0.0,41,0.00,,,0.03,WeatherTracker,2013-03-23 21:31:00,
2013-03-23 17:36:00,42.0,21.1,29.60,WNW,283,9.0,0.0,43,0.00,,,0.03,WeatherTracker,2013-03-23 21:36:00,
2013-03-23 17:41:00,41.7,18.6,29.60,WNW,290,3.0,0.0,39,0.00,,,0.03,WeatherTracker,2013-03-23 21:41:00,
2013-03-23 17:46:00,41.5,19.6,29.60,NNW,334,1.0,0.0,41,0.00,,,0.03,WeatherTracker,2013-03-23 21:46:00,